| time (UTC) | temp F | wind direction | speed knots | gust knots | rain 1hr in | rain 24hr in | rain mn in | humidity % | barometer mb |
| 20260507074606 | 51 | 174 | 0.0 | 1.7 | 0.00 | 0.00 | 0.00 | 80 | 1015.6 |
| 20260507074103 | 51 | 159 | 0.9 | 2.6 | 0.00 | 0.00 | 0.00 | 80 | 1015.6 |
| 20260507073603 | 51 | 153 | 0.0 | 0.9 | 0.00 | 0.00 | 0.00 | 81 | 1015.6 |
| 20260507073103 | 50 | 151 | 0.9 | 2.6 | 0.00 | 0.00 | 0.00 | 81 | 1015.6 |
| 20260507072605 | 50 | 55 | 0.9 | 0.9 | 0.00 | 0.00 | 0.00 | 82 | 1015.6 |
| 20260507072103 | 49 | 11 | 0.0 | 0.9 | 0.00 | 0.00 | 0.00 | 82 | 1015.6 |
| 20260507071604 | 49 | 169 | 0.0 | 0.0 | 0.00 | 0.00 | 0.00 | 82 | 1015.6 |
| 20260507071103 | 48 | 180 | 0.9 | 0.9 | 0.00 | 0.00 | 0.00 | 82 | 1015.6 |
| 20260507070604 | 48 | 61 | 0.9 | 1.7 | 0.00 | 0.00 | 0.00 | 82 | 1015.6 |
| 20260507065603 | 48 | 37 | 0.0 | 0.9 | 0.00 | 0.00 | 0.00 | 81 | 1015.6 |
| 20260507065103 | 48 | 37 | 0.0 | 0.0 | 0.00 | 0.00 | 0.00 | 81 | 1015.6 |
| 20260507064603 | 47 | 37 | 0.0 | 0.9 | 0.00 | 0.00 | 0.00 | 81 | 1015.6 |
| 20260507064103 | 47 | 37 | 0.0 | 0.0 | 0.00 | 0.00 | 0.00 | 81 | 1015.6 |
| 20260507063603 | 47 | 37 | 0.0 | 0.0 | 0.00 | 0.00 | 0.00 | 81 | 1015.6 |
| 20260507063103 | 48 | 37 | 0.9 | 0.9 | 0.00 | 0.00 | 0.00 | 81 | 1015.6 |
| 20260507062603 | 47 | 37 | 0.0 | 0.0 | 0.00 | 0.00 | 0.00 | 82 | 1015.6 |
| 20260507062103 | 47 | 37 | 0.0 | 0.0 | 0.00 | 0.00 | 0.00 | 83 | 1015.6 |
| 20260507061603 | 46 | 37 | 0.0 | 0.9 | 0.00 | 0.00 | 0.00 | 83 | 1015.6 |
| 20260507061105 | 46 | 37 | 0.0 | 0.0 | 0.00 | 0.00 | 0.00 | 84 | 1015.6 |
| 20260507060604 | 46 | 37 | 0.0 | 0.0 | 0.00 | 0.00 | 0.00 | 86 | 1015.2 |
| 20260507060104 | 45 | 37 | 0.0 | 0.0 | 0.00 | 0.00 | 0.00 | 87 | 1015.2 |
| 20260507055603 | 43 | 37 | 0.0 | 0.0 | 0.00 | 0.00 | 0.00 | 86 | 1015.6 |
| 20260507055103 | 42 | 37 | 0.0 | 0.0 | 0.00 | 0.00 | 0.00 | 86 | 1015.6 |
| 20260507054603 | 42 | 37 | 0.0 | 0.0 | 0.00 | 0.00 | 0.00 | 86 | 1015.6 |
| 20260507054104 | 42 | 37 | 0.0 | 0.0 | 0.00 | 0.00 | 0.00 | 86 | 1015.6 |
| 20260507053605 | 42 | 37 | 0.0 | 0.0 | 0.00 | 0.00 | 0.00 | 86 | 1015.6 |
| 20260507053104 | 41 | 37 | 0.0 | 0.0 | 0.00 | 0.00 | 0.00 | 85 | 1015.6 |
| 20260507052603 | 41 | 37 | 0.0 | 0.0 | 0.00 | 0.00 | 0.00 | 85 | 1014.9 |
| 20260507052105 | 41 | 37 | 0.0 | 0.0 | 0.00 | 0.00 | 0.00 | 85 | 1015.6 |
| 20260507051603 | 41 | 37 | 0.0 | 0.0 | 0.00 | 0.00 | 0.00 | 85 | 1015.2 |
| 20260507051104 | 41 | 37 | 0.0 | 0.0 | 0.00 | 0.00 | 0.00 | 85 | 1015.2 |
| 20260507050603 | 41 | 37 | 0.0 | 0.0 | 0.00 | 0.00 | 0.00 | 85 | 1015.2 |
| 20260507050104 | 41 | 37 | 0.0 | 0.0 | 0.00 | 0.00 | 0.00 | 85 | 1015.2 |
| 20260507045604 | 41 | 37 | 0.0 | 0.0 | 0.00 | 0.00 | 0.00 | 85 | 1015.2 |
| 20260507045103 | 41 | 37 | 0.0 | 0.0 | 0.00 | 0.00 | 0.00 | 84 | 1015.2 |
| 20260507044603 | 42 | 37 | 0.0 | 0.0 | 0.00 | 0.00 | 0.00 | 84 | 1015.2 |
| 20260507044104 | 42 | 37 | 0.0 | 0.0 | 0.00 | 0.00 | 0.00 | 84 | 1014.9 |
| 20260507043603 | 42 | 37 | 0.0 | 0.0 | 0.00 | 0.00 | 0.00 | 84 | 1015.2 |
| 20260507043103 | 42 | 37 | 0.0 | 0.0 | 0.00 | 0.00 | 0.00 | 84 | 1015.2 |
| 20260507042603 | 42 | 37 | 0.0 | 0.0 | 0.00 | 0.00 | 0.00 | 84 | 1014.9 |
| 20260507042103 | 42 | 37 | 0.0 | 0.0 | 0.00 | 0.00 | 0.00 | 83 | 1015.2 |
| 20260507041603 | 42 | 37 | 0.0 | 0.0 | 0.00 | 0.00 | 0.00 | 83 | 1014.9 |
| 20260507041103 | 43 | 37 | 0.0 | 0.0 | 0.00 | 0.00 | 0.00 | 83 | 1015.2 |
| 20260507040604 | 43 | 37 | 0.0 | 0.0 | 0.00 | 0.00 | 0.00 | 83 | 1015.2 |
| 20260507040104 | 43 | 37 | 0.0 | 0.0 | 0.00 | 0.00 | 0.00 | 83 | 1014.9 |
| 20260507035604 | 43 | 37 | 0.0 | 0.0 | 0.00 | 0.00 | 0.00 | 83 | 1014.9 |
| 20260507035103 | 43 | 37 | 0.0 | 0.0 | 0.00 | 0.00 | 0.00 | 83 | 1014.9 |
| 20260507034603 | 44 | 37 | 0.0 | 0.0 | 0.00 | 0.00 | 0.00 | 83 | 1014.9 |
| 20260507034104 | 44 | 37 | 0.0 | 0.0 | 0.00 | 0.00 | 0.00 | 82 | 1014.9 |
| 20260507033606 | 44 | 37 | 0.0 | 0.0 | 0.00 | 0.00 | 0.00 | 82 | 1014.9 |
| 20260507033103 | 44 | 37 | 0.0 | 0.0 | 0.00 | 0.00 | 0.00 | 82 | 1014.9 |
| 20260507032603 | 44 | 37 | 0.0 | 0.0 | 0.00 | 0.00 | 0.00 | 82 | 1014.9 |
| 20260507032103 | 44 | 37 | 0.0 | 0.0 | 0.00 | 0.00 | 0.00 | 83 | 1014.6 |
| 20260507031605 | 44 | 37 | 0.0 | 0.9 | 0.00 | 0.00 | 0.00 | 83 | 1014.9 |
| 20260507031103 | 44 | 37 | 0.0 | 0.9 | 0.00 | 0.00 | 0.00 | 82 | 1014.9 |
| 20260507030604 | 44 | 37 | 0.0 | 0.9 | 0.00 | 0.00 | 0.00 | 82 | 1014.6 |
| 20260507025604 | 45 | 20 | 0.0 | 0.9 | 0.00 | 0.00 | 0.00 | 82 | 1014.9 |
| 20260507025103 | 45 | 19 | 0.0 | 0.0 | 0.00 | 0.00 | 0.00 | 81 | 1014.9 |
| 20260507024610 | 45 | 19 | 0.0 | 0.0 | 0.00 | 0.00 | 0.00 | 81 | 1014.9 |
| 20260507024105 | 45 | 19 | 0.0 | 0.0 | 0.00 | 0.00 | 0.00 | 82 | 1014.6 |
| 20260507023604 | 45 | 19 | 0.0 | 0.0 | 0.00 | 0.00 | 0.00 | 82 | 1014.9 |
| 20260507023103 | 45 | 29 | 0.0 | 0.9 | 0.00 | 0.00 | 0.00 | 81 | 1014.6 |
| 20260507022603 | 45 | 18 | 0.0 | 0.9 | 0.00 | 0.00 | 0.00 | 81 | 1014.6 |
| 20260507022104 | 45 | 28 | 0.0 | 0.9 | 0.00 | 0.00 | 0.00 | 81 | 1014.9 |
| 20260507021603 | 46 | 21 | 0.0 | 1.7 | 0.00 | 0.00 | 0.00 | 81 | 1014.6 |
| 20260507021104 | 46 | 18 | 0.9 | 2.6 | 0.00 | 0.00 | 0.00 | 81 | 1014.6 |
| 20260507020604 | 46 | 35 | 0.0 | 0.0 | 0.00 | 0.00 | 0.00 | 80 | 1014.6 |
| 20260507020103 | 46 | 36 | 0.0 | 0.0 | 0.00 | 0.00 | 0.00 | 80 | 1014.6 |
| 20260507015604 | 46 | 36 | 0.0 | 0.0 | 0.00 | 0.00 | 0.00 | 81 | 1014.6 |
| 20260507015104 | 46 | 19 | 0.0 | 0.9 | 0.00 | 0.00 | 0.00 | 81 | 1014.6 |
| 20260507014604 | 46 | 42 | 0.0 | 0.9 | 0.00 | 0.00 | 0.00 | 80 | 1014.6 |
| 20260507014105 | 45 | 20 | 0.0 | 2.6 | 0.00 | 0.00 | 0.00 | 81 | 1014.6 |
| 20260507013603 | 45 | 14 | 0.9 | 1.7 | 0.00 | 0.00 | 0.00 | 79 | 1014.6 |
| 20260507013103 | 45 | 3 | 0.0 | 0.9 | 0.00 | 0.00 | 0.00 | 78 | 1014.6 |
| 20260507012603 | 45 | 3 | 0.0 | 0.0 | 0.00 | 0.00 | 0.00 | 78 | 1014.6 |
| 20260507012104 | 45 | 3 | 0.9 | 0.9 | 0.00 | 0.00 | 0.00 | 78 | 1014.6 |
| 20260507011603 | 45 | 17 | 0.9 | 0.9 | 0.00 | 0.00 | 0.00 | 77 | 1014.6 |
| 20260507011103 | 46 | 18 | 0.0 | 0.0 | 0.00 | 0.00 | 0.00 | 77 | 1014.9 |
| 20260507010604 | 46 | 18 | 0.0 | 0.0 | 0.00 | 0.00 | 0.00 | 77 | 1014.6 |
| 20260507005603 | 46 | 17 | 0.0 | 0.9 | 0.00 | 0.00 | 0.00 | 76 | 1014.6 |
| 20260507005103 | 46 | 18 | 0.0 | 0.9 | 0.00 | 0.00 | 0.00 | 76 | 1014.6 |
| 20260507004603 | 46 | 18 | 0.0 | 0.0 | 0.00 | 0.00 | 0.00 | 75 | 1014.6 |
| 20260507004103 | 46 | 18 | 0.0 | 0.0 | 0.00 | 0.00 | 0.00 | 74 | 1014.6 |
| 20260507003603 | 47 | 17 | 0.0 | 0.0 | 0.00 | 0.00 | 0.00 | 74 | 1014.6 |
| 20260507003103 | 47 | 18 | 0.0 | 0.0 | 0.00 | 0.00 | 0.00 | 74 | 1014.6 |
| 20260507002604 | 47 | 18 | 0.0 | 0.0 | 0.00 | 0.00 | 0.00 | 74 | 1014.6 |
| 20260507002103 | 48 | 18 | 0.0 | 0.9 | 0.00 | 0.00 | 0.00 | 73 | 1014.6 |
| 20260507001603 | 48 | 18 | 0.0 | 0.9 | 0.00 | 0.00 | 0.00 | 73 | 1014.6 |
| 20260507001104 | 48 | 18 | 0.0 | 0.0 | 0.00 | 0.00 | 0.00 | 72 | 1014.6 |
| 20260507000603 | 48 | 25 | 0.0 | 0.9 | 0.00 | 0.00 | 0.00 | 73 | 1014.6 |
| 20260506235604 | 48 | 32 | 0.0 | 0.9 | 0.00 | 0.00 | 0.00 | 72 | 1014.6 |
| 20260506235104 | 49 | 16 | 0.0 | 0.9 | 0.00 | 0.00 | 0.00 | 72 | 1014.2 |
| 20260506234604 | 49 | 9 | 0.0 | 0.9 | 0.00 | 0.00 | 0.00 | 72 | 1014.6 |
| 20260506234104 | 49 | 30 | 0.0 | 0.9 | 0.00 | 0.00 | 0.00 | 72 | 1014.2 |
| 20260506233603 | 49 | 30 | 0.0 | 0.9 | 0.00 | 0.00 | 0.00 | 71 | 1014.2 |
| 20260506233104 | 49 | 46 | 0.9 | 0.9 | 0.00 | 0.00 | 0.00 | 71 | 1014.6 |
| 20260506232603 | 50 | 46 | 0.0 | 0.9 | 0.00 | 0.00 | 0.00 | 72 | 1014.2 |
| 20260506232103 | 50 | 26 | 0.0 | 0.9 | 0.00 | 0.00 | 0.00 | 72 | 1014.2 |
| 20260506231604 | 50 | 355 | 0.9 | 2.6 | 0.00 | 0.00 | 0.00 | 71 | 1014.2 |
| 20260506231103 | 50 | 4 | 0.0 | 0.9 | 0.00 | 0.00 | 0.00 | 71 | 1014.6 |
| 20260506230603 | 50 | 4 | 0.0 | 0.9 | 0.00 | 0.00 | 0.00 | 71 | 1014.2 |
| 20260506230103 | 50 | 22 | 0.0 | 0.9 | 0.00 | 0.00 | 0.00 | 70 | 1014.6 |
| 20260506225603 | 50 | 4 | 0.0 | 0.9 | 0.00 | 0.00 | 0.00 | 70 | 1014.2 |
| 20260506225103 | 50 | 4 | 0.0 | 0.9 | 0.00 | 0.00 | 0.00 | 70 | 1014.2 |
| 20260506224603 | 50 | 7 | 0.0 | 0.9 | 0.00 | 0.00 | 0.00 | 70 | 1014.2 |
| 20260506224103 | 50 | 0 | 0.0 | 1.7 | 0.00 | 0.00 | 0.00 | 70 | 1014.6 |
| 20260506223603 | 50 | 353 | 0.0 | 1.7 | 0.00 | 0.00 | 0.00 | 69 | 1014.6 |
| 20260506223104 | 50 | 25 | 0.9 | 0.9 | 0.00 | 0.00 | 0.00 | 69 | 1014.2 |
| 20260506222604 | 50 | 19 | 0.9 | 4.3 | 0.00 | 0.00 | 0.00 | 69 | 1014.2 |
| 20260506222103 | 50 | 27 | 0.0 | 2.6 | 0.00 | 0.00 | 0.00 | 69 | 1014.2 |
| 20260506221603 | 51 | 17 | 0.0 | 0.9 | 0.00 | 0.00 | 0.00 | 68 | 1014.2 |
| 20260506221103 | 51 | 17 | 0.0 | 0.9 | 0.00 | 0.00 | 0.00 | 68 | 1014.2 |
| 20260506220604 | 51 | 38 | 0.0 | 0.0 | 0.00 | 0.00 | 0.00 | 68 | 1014.2 |
| 20260506220104 | 51 | 23 | 0.0 | 1.7 | 0.00 | 0.00 | 0.00 | 68 | 1014.2 |
| 20260506215604 | 51 | 11 | 0.0 | 1.7 | 0.00 | 0.00 | 0.00 | 68 | 1013.9 |
| 20260506215104 | 51 | 17 | 0.9 | 1.7 | 0.00 | 0.00 | 0.00 | 67 | 1014.2 |
| 20260506214603 | 51 | 351 | 0.0 | 1.7 | 0.00 | 0.00 | 0.00 | 67 | 1014.2 |
| 20260506214104 | 51 | 353 | 0.0 | 0.9 | 0.00 | 0.00 | 0.00 | 67 | 1014.2 |
| 20260506213603 | 51 | 8 | 0.9 | 0.9 | 0.00 | 0.00 | 0.00 | 67 | 1014.2 |
| 20260506213110 | 51 | 18 | 0.9 | 0.9 | 0.00 | 0.00 | 0.00 | 66 | 1013.9 |
| 20260506212603 | 51 | 345 | 0.0 | 2.6 | 0.00 | 0.00 | 0.00 | 66 | 1014.2 |
| 20260506212104 | 51 | 343 | 1.7 | 2.6 | 0.00 | 0.00 | 0.00 | 66 | 1013.9 |
| 20260506211604 | 51 | 333 | 0.0 | 2.6 | 0.00 | 0.00 | 0.00 | 66 | 1013.9 |
| 20260506211103 | 51 | 331 | 0.0 | 0.9 | 0.00 | 0.00 | 0.00 | 66 | 1013.9 |
| 20260506210604 | 51 | 345 | 0.0 | 0.9 | 0.00 | 0.00 | 0.00 | 66 | 1013.9 |
| 20260506210104 | 51 | 24 | 0.0 | 1.7 | 0.00 | 0.00 | 0.00 | 66 | 1013.9 |
| 20260506205604 | 51 | 27 | 0.9 | 2.6 | 0.00 | 0.00 | 0.00 | 66 | 1013.9 |
| 20260506205103 | 51 | 120 | 0.0 | 0.9 | 0.00 | 0.00 | 0.00 | 66 | 1013.9 |
| 20260506204603 | 52 | 117 | 0.9 | 1.7 | 0.00 | 0.00 | 0.00 | 66 | 1013.9 |
| 20260506204104 | 52 | 129 | 0.9 | 0.9 | 0.00 | 0.00 | 0.00 | 66 | 1013.9 |
| 20260506203604 | 52 | 115 | 0.0 | 1.7 | 0.00 | 0.00 | 0.00 | 66 | 1013.9 |
| 20260506203103 | 52 | 81 | 0.9 | 0.9 | 0.00 | 0.00 | 0.00 | 66 | 1013.9 |
| 20260506202604 | 52 | 328 | 0.9 | 1.7 | 0.00 | 0.00 | 0.00 | 65 | 1013.9 |
| 20260506202103 | 52 | 339 | 0.9 | 2.6 | 0.00 | 0.00 | 0.00 | 65 | 1013.9 |
| 20260506201604 | 52 | 330 | 0.0 | 2.6 | 0.00 | 0.00 | 0.00 | 65 | 1013.5 |
| 20260506201103 | 52 | 84 | 0.0 | 0.9 | 0.00 | 0.00 | 0.00 | 65 | 1013.5 |
| 20260506200604 | 52 | 81 | 0.9 | 2.6 | 0.00 | 0.00 | 0.00 | 66 | 1013.5 |
| 20260506195605 | 52 | 82 | 0.9 | 1.7 | 0.00 | 0.00 | 0.00 | 65 | 1013.2 |
| 20260506195104 | 52 | 113 | 0.0 | 1.7 | 0.00 | 0.00 | 0.00 | 65 | 1013.2 |
| 20260506194603 | 52 | 110 | 0.0 | 0.9 | 0.00 | 0.00 | 0.00 | 64 | 1013.2 |
| 20260506194104 | 52 | 103 | 0.0 | 1.7 | 0.00 | 0.00 | 0.00 | 64 | 1013.2 |
| 20260506193604 | 52 | 94 | 0.9 | 0.9 | 0.00 | 0.00 | 0.00 | 64 | 1013.2 |
| 20260506193104 | 52 | 77 | 0.9 | 0.9 | 0.00 | 0.00 | 0.00 | 63 | 1013.2 |
| 20260506192607 | 53 | 95 | 0.9 | 2.6 | 0.00 | 0.00 | 0.00 | 63 | 1013.2 |
| 20260506192104 | 53 | 100 | 0.0 | 2.6 | 0.00 | 0.00 | 0.00 | 62 | 1012.9 |
| 20260506191605 | 53 | 104 | 0.9 | 1.7 | 0.00 | 0.00 | 0.00 | 62 | 1013.2 |
| 20260506191103 | 53 | 90 | 0.9 | 1.7 | 0.00 | 0.00 | 0.00 | 61 | 1012.9 |
| 20260506190604 | 53 | 93 | 0.0 | 0.9 | 0.00 | 0.00 | 0.00 | 60 | 1012.9 |
| 20260506190103 | 53 | 96 | 2.6 | 4.3 | 0.00 | 0.00 | 0.00 | 60 | 1012.9 |
| 20260506185605 | 54 | 285 | 1.7 | 2.6 | 0.00 | 0.00 | 0.00 | 59 | 1012.9 |
| 20260506185103 | 54 | 75 | 1.7 | 7.0 | 0.00 | 0.00 | 0.00 | 59 | 1012.9 |
| 20260506184608 | 54 | 74 | 2.6 | 7.0 | 0.00 | 0.00 | 0.00 | 59 | 1012.9 |
| 20260506184104 | 54 | 48 | 0.9 | 5.2 | 0.00 | 0.00 | 0.00 | 59 | 1012.9 |
| 20260506183604 | 54 | 46 | 0.9 | 2.6 | 0.00 | 0.00 | 0.00 | 59 | 1012.5 |
| 20260506183104 | 54 | 49 | 0.0 | 4.3 | 0.00 | 0.00 | 0.00 | 60 | 1012.5 |
| 20260506182603 | 54 | 99 | 0.9 | 2.6 | 0.00 | 0.00 | 0.00 | 60 | 1012.5 |
| 20260506182104 | 55 | 64 | 3.5 | 5.2 | 0.00 | 0.00 | 0.00 | 59 | 1012.5 |
| 20260506181605 | 55 | 17 | 0.9 | 1.7 | 0.00 | 0.00 | 0.00 | 59 | 1012.5 |
| 20260506181105 | 55 | 97 | 0.0 | 2.6 | 0.00 | 0.00 | 0.00 | 59 | 1012.5 |
| 20260506180606 | 55 | 340 | 0.9 | 4.3 | 0.00 | 0.00 | 0.00 | 59 | 1012.2 |
| 20260506180103 | 55 | 110 | 0.9 | 1.7 | 0.00 | 0.00 | 0.00 | 59 | 1012.2 |
| 20260506175604 | 55 | 356 | 1.7 | 4.3 | 0.00 | 0.00 | 0.00 | 58 | 1012.5 |
| 20260506175104 | 55 | 122 | 2.6 | 4.3 | 0.00 | 0.00 | 0.00 | 59 | 1012.2 |
| 20260506174603 | 55 | 311 | 1.7 | 1.7 | 0.00 | 0.00 | 0.00 | 60 | 1012.2 |
| 20260506174104 | 55 | 308 | 1.7 | 1.7 | 0.00 | 0.00 | 0.00 | 59 | 1011.9 |
| 20260506173604 | 55 | 312 | 2.6 | 6.1 | 0.00 | 0.00 | 0.00 | 60 | 1012.2 |
| 20260506173104 | 55 | 302 | 2.6 | 4.3 | 0.00 | 0.00 | 0.00 | 60 | 1012.2 |
| 20260506172603 | 55 | 350 | 0.0 | 2.6 | 0.00 | 0.00 | 0.00 | 58 | 1012.2 |
| 20260506172106 | 55 | 332 | 2.6 | 6.1 | 0.00 | 0.00 | 0.00 | 60 | 1012.2 |
| 20260506171603 | 55 | 287 | 0.0 | 1.7 | 0.00 | 0.00 | 0.00 | 59 | 1012.2 |
| 20260506171103 | 55 | 99 | 0.0 | 2.6 | 0.00 | 0.00 | 0.00 | 59 | 1012.2 |
| 20260506170603 | 55 | 44 | 3.5 | 4.3 | 0.00 | 0.00 | 0.00 | 59 | 1011.9 |
| 20260506170103 | 55 | 101 | 0.9 | 5.2 | 0.00 | 0.00 | 0.00 | 59 | 1011.9 |
| 20260506165603 | 55 | 341 | 2.6 | 4.3 | 0.00 | 0.00 | 0.00 | 59 | 1012.2 |
| 20260506165103 | 55 | 105 | 2.6 | 4.3 | 0.00 | 0.00 | 0.00 | 60 | 1012.2 |
| 20260506164604 | 55 | 308 | 0.9 | 6.1 | 0.00 | 0.00 | 0.00 | 60 | 1012.2 |
| 20260506164103 | 55 | 120 | 2.6 | 6.1 | 0.00 | 0.00 | 0.00 | 59 | 1012.2 |
| 20260506163605 | 55 | 111 | 2.6 | 4.3 | 0.00 | 0.00 | 0.00 | 60 | 1012.2 |
| 20260506163104 | 55 | 286 | 0.9 | 4.3 | 0.00 | 0.00 | 0.00 | 61 | 1012.2 |
| 20260506162603 | 55 | 288 | 2.6 | 6.1 | 0.00 | 0.00 | 0.00 | 60 | 1012.2 |
| 20260506162103 | 55 | 56 | 2.6 | 7.0 | 0.00 | 0.00 | 0.00 | 61 | 1012.2 |
| 20260506161604 | 55 | 353 | 2.6 | 5.2 | 0.00 | 0.00 | 0.00 | 60 | 1012.2 |
| 20260506161103 | 55 | 28 | 2.6 | 4.3 | 0.00 | 0.00 | 0.00 | 60 | 1012.5 |
| 20260506160604 | 54 | 41 | 0.9 | 4.3 | 0.00 | 0.00 | 0.00 | 60 | 1012.5 |
| 20260506160104 | 55 | 5 | 3.5 | 6.1 | 0.00 | 0.00 | 0.00 | 61 | 1012.5 |
| 20260506155604 | 55 | 39 | 1.7 | 5.2 | 0.00 | 0.00 | 0.00 | 61 | 1012.2 |
| 20260506155109 | 55 | 319 | 4.3 | 7.0 | 0.00 | 0.00 | 0.00 | 61 | 1012.2 |
| 20260506154604 | 55 | 355 | 2.6 | 7.0 | 0.00 | 0.00 | 0.00 | 61 | 1012.2 |
| 20260506154104 | 55 | 342 | 0.9 | 2.6 | 0.00 | 0.00 | 0.00 | 61 | 1012.2 |
| 20260506153603 | 55 | 105 | 2.6 | 4.3 | 0.00 | 0.00 | 0.00 | 60 | 1012.2 |
| 20260506153104 | 55 | 57 | 3.5 | 6.1 | 0.00 | 0.00 | 0.00 | 60 | 1012.5 |
| 20260506152603 | 55 | 79 | 2.6 | 8.7 | 0.00 | 0.00 | 0.00 | 60 | 1012.5 |
| 20260506152103 | 55 | 31 | 2.6 | 5.2 | 0.00 | 0.00 | 0.00 | 60 | 1012.2 |
| 20260506151605 | 55 | 115 | 2.6 | 5.2 | 0.00 | 0.00 | 0.00 | 61 | 1012.2 |
| 20260506151103 | 55 | 102 | 1.7 | 5.2 | 0.00 | 0.00 | 0.00 | 60 | 1012.2 |
| 20260506150604 | 55 | 81 | 2.6 | 7.8 | 0.00 | 0.00 | 0.00 | 59 | 1012.2 |
| 20260506150104 | 55 | 358 | 2.6 | 6.1 | 0.00 | 0.00 | 0.00 | 58 | 1012.2 |
| 20260506145604 | 55 | 64 | 1.7 | 7.0 | 0.00 | 0.00 | 0.00 | 59 | 1012.2 |
| 20260506145105 | 55 | 152 | 2.6 | 8.7 | 0.00 | 0.00 | 0.00 | 58 | 1012.2 |
| 20260506144603 | 55 | 7 | 2.6 | 4.3 | 0.00 | 0.00 | 0.00 | 59 | 1012.2 |
| 20260506144103 | 56 | 89 | 2.6 | 4.3 | 0.00 | 0.00 | 0.00 | 58 | 1011.9 |
| 20260506143605 | 56 | 350 | 2.6 | 7.0 | 0.00 | 0.00 | 0.00 | 58 | 1012.2 |
| 20260506143103 | 56 | 149 | 1.7 | 5.2 | 0.00 | 0.00 | 0.00 | 57 | 1012.2 |
| 20260506142210 | 57 | 104 | 0.9 | 5.2 | 0.00 | 0.00 | 0.00 | 56 | 1011.9 |
| 20260506141622 | 57 | 115 | 3.5 | 7.0 | 0.00 | 0.00 | 0.00 | 57 | 1011.9 |
| 20260506141104 | 56 | 38 | 0.9 | 6.1 | 0.00 | 0.00 | 0.00 | 58 | 1011.9 |
| 20260506140605 | 56 | 66 | 6.1 | 8.7 | 0.00 | 0.00 | 0.00 | 57 | 1011.9 |
| 20260506140106 | 57 | 72 | 0.9 | 5.2 | 0.00 | 0.00 | 0.00 | 56 | 1011.9 |
| 20260506135603 | 58 | 129 | 6.1 | 8.7 | 0.00 | 0.00 | 0.00 | 55 | 1012.2 |
| 20260506135104 | 58 | 76 | 5.2 | 7.8 | 0.00 | 0.00 | 0.00 | 55 | 1011.9 |
| 20260506134604 | 59 | 32 | 1.7 | 6.1 | 0.00 | 0.00 | 0.00 | 52 | 1011.9 |
| 20260506134104 | 59 | 103 | 1.7 | 6.1 | 0.00 | 0.00 | 0.00 | 52 | 1012.2 |
| 20260506133604 | 58 | 316 | 2.6 | 7.0 | 0.00 | 0.00 | 0.00 | 53 | 1012.2 |
| 20260506133103 | 59 | 302 | 4.3 | 8.7 | 0.00 | 0.00 | 0.00 | 51 | 1011.9 |
| 20260506132604 | 59 | 329 | 4.3 | 7.8 | 0.00 | 0.00 | 0.00 | 53 | 1011.9 |
| 20260506132104 | 58 | 316 | 4.3 | 6.1 | 0.00 | 0.00 | 0.00 | 55 | 1011.9 |
| 20260506131604 | 57 | 338 | 7.8 | 7.8 | 0.00 | 0.00 | 0.00 | 54 | 1011.9 |
| 20260506131103 | 57 | 324 | 7.0 | 7.8 | 0.00 | 0.00 | 0.00 | 55 | 1012.2 |
| 20260506130603 | 57 | 130 | 4.3 | 6.1 | 0.00 | 0.00 | 0.00 | 53 | 1011.9 |
| 20260506130103 | 58 | 101 | 4.3 | 7.8 | 0.00 | 0.00 | 0.00 | 53 | 1012.2 |
| 20260506125603 | 58 | 19 | 2.6 | 8.7 | 0.00 | 0.00 | 0.00 | 56 | 1011.9 |
| 20260506125104 | 57 | 85 | 1.7 | 4.3 | 0.00 | 0.00 | 0.00 | 55 | 1011.9 |
| 20260506124604 | 57 | 108 | 3.5 | 7.0 | 0.00 | 0.00 | 0.00 | 54 | 1012.2 |
| 20260506124103 | 57 | 3 | 4.3 | 9.6 | 0.00 | 0.00 | 0.00 | 54 | 1012.2 |
| 20260506123603 | 57 | 328 | 4.3 | 8.7 | 0.00 | 0.00 | 0.00 | 54 | 1011.9 |
| 20260506123104 | 57 | 215 | 1.7 | 4.3 | 0.00 | 0.00 | 0.00 | 55 | 1012.2 |
| 20260506122603 | 57 | 49 | 1.7 | 6.1 | 0.00 | 0.00 | 0.00 | 54 | 1011.9 |
| 20260506122103 | 57 | 226 | 1.7 | 5.2 | 0.00 | 0.00 | 0.00 | 54 | 1011.9 |
| 20260506121604 | 57 | 326 | 6.1 | 9.6 | 0.00 | 0.00 | 0.00 | 51 | 1011.9 |
| 20260506121103 | 57 | 45 | 4.3 | 7.8 | 0.00 | 0.00 | 0.00 | 53 | 1012.2 |
| 20260506120604 | 57 | 93 | 1.7 | 5.2 | 0.00 | 0.00 | 0.00 | 53 | 1012.2 |
| 20260506120103 | 57 | 125 | 3.5 | 6.1 | 0.00 | 0.00 | 0.00 | 53 | 1012.2 |
| 20260506115603 | 57 | 318 | 2.6 | 7.8 | 0.00 | 0.00 | 0.00 | 54 | 1012.2 |
| 20260506115104 | 57 | 8 | 2.6 | 7.0 | 0.00 | 0.00 | 0.00 | 54 | 1012.2 |
| 20260506114603 | 56 | 359 | 2.6 | 11.3 | 0.00 | 0.00 | 0.00 | 54 | 1012.2 |
| 20260506114104 | 56 | 250 | 4.3 | 8.7 | 0.00 | 0.00 | 0.00 | 56 | 1012.2 |
| 20260506113604 | 56 | 329 | 3.5 | 4.3 | 0.00 | 0.00 | 0.00 | 55 | 1012.2 |
| 20260506113103 | 55 | 2 | 6.1 | 11.3 | 0.00 | 0.00 | 0.00 | 55 | 1012.2 |
| 20260506112604 | 55 | 154 | 0.9 | 5.2 | 0.00 | 0.00 | 0.00 | 55 | 1012.5 |
| 20260506112104 | 55 | 73 | 3.5 | 6.1 | 0.00 | 0.00 | 0.00 | 55 | 1012.2 |
| 20260506111604 | 55 | 40 | 4.3 | 7.0 | 0.00 | 0.00 | 0.00 | 54 | 1012.5 |
| 20260506111103 | 56 | 344 | 3.5 | 6.1 | 0.00 | 0.00 | 0.00 | 55 | 1012.5 |
| 20260506110603 | 55 | 357 | 3.5 | 7.8 | 0.00 | 0.00 | 0.00 | 54 | 1012.5 |
| 20260506110104 | 55 | 14 | 7.0 | 9.6 | 0.00 | 0.00 | 0.00 | 56 | 1012.2 |
| 20260506105603 | 55 | 57 | 4.3 | 8.7 | 0.00 | 0.00 | 0.00 | 57 | 1012.2 |
| 20260506105104 | 55 | 94 | 3.5 | 7.8 | 0.00 | 0.00 | 0.00 | 56 | 1012.5 |
| 20260506104604 | 55 | 324 | 2.6 | 13.0 | 0.00 | 0.00 | 0.00 | 57 | 1012.5 |
| 20260506104103 | 55 | 110 | 5.2 | 7.8 | 0.00 | 0.00 | 0.00 | 57 | 1012.2 |
| 20260506103603 | 55 | 69 | 4.3 | 6.1 | 0.00 | 0.00 | 0.00 | 56 | 1012.5 |
| 20260506103106 | 55 | 345 | 6.1 | 7.8 | 0.00 | 0.00 | 0.00 | 56 | 1012.2 |
| 20260506102605 | 54 | 220 | 2.6 | 7.8 | 0.00 | 0.00 | 0.00 | 56 | 1012.5 |
| 20260506102105 | 55 | 335 | 5.2 | 15.6 | 0.00 | 0.00 | 0.00 | 55 | 1012.2 |
| 20260506101604 | 54 | 79 | 3.5 | 6.1 | 0.00 | 0.00 | 0.00 | 58 | 1012.5 |
| 20260506101105 | 54 | 47 | 3.5 | 6.1 | 0.00 | 0.00 | 0.00 | 56 | 1012.2 |
| 20260506100603 | 54 | 175 | 1.7 | 15.6 | 0.00 | 0.00 | 0.00 | 57 | 1012.2 |
| 20260506100104 | 54 | 14 | 1.7 | 8.7 | 0.00 | 0.00 | 0.00 | 56 | 1012.2 |
| 20260506095603 | 54 | 322 | 3.5 | 7.8 | 0.00 | 0.00 | 0.00 | 58 | 1011.9 |
| 20260506095104 | 54 | 80 | 2.6 | 6.1 | 0.00 | 0.00 | 0.00 | 58 | 1012.2 |
| 20260506094604 | 54 | 353 | 6.1 | 8.7 | 0.00 | 0.00 | 0.00 | 62 | 1012.2 |
| 20260506094103 | 53 | 113 | 4.3 | 7.0 | 0.00 | 0.00 | 0.00 | 63 | 1012.2 |
| 20260506093604 | 53 | 94 | 2.6 | 5.2 | 0.00 | 0.00 | 0.00 | 65 | 1012.2 |
| 20260506093104 | 53 | 285 | 4.3 | 7.8 | 0.00 | 0.00 | 0.00 | 65 | 1012.5 |
| 20260506092605 | 53 | 1 | 1.7 | 6.1 | 0.00 | 0.00 | 0.00 | 64 | 1012.2 |
| 20260506092103 | 52 | 343 | 6.1 | 7.8 | 0.00 | 0.00 | 0.00 | 67 | 1012.5 |
| 20260506091603 | 52 | 262 | 1.7 | 9.6 | 0.00 | 0.00 | 0.00 | 66 | 1012.5 |
| 20260506091105 | 52 | 326 | 6.1 | 12.2 | 0.00 | 0.00 | 0.00 | 66 | 1012.2 |
| 20260506090604 | 53 | 309 | 6.1 | 11.3 | 0.00 | 0.00 | 0.00 | 66 | 1012.5 |
| 20260506090103 | 53 | 327 | 5.2 | 11.3 | 0.00 | 0.00 | 0.00 | 65 | 1012.2 |
| 20260506085603 | 53 | 293 | 0.9 | 4.3 | 0.00 | 0.00 | 0.00 | 65 | 1012.5 |
| 20260506085103 | 53 | 138 | 2.6 | 11.3 | 0.00 | 0.00 | 0.00 | 63 | 1012.2 |
| 20260506084603 | 53 | 326 | 1.7 | 12.2 | 0.00 | 0.00 | 0.00 | 68 | 1012.2 |
| 20260506084103 | 52 | 7 | 7.8 | 13.0 | 0.00 | 0.00 | 0.00 | 67 | 1012.2 |
| 20260506083603 | 52 | 106 | 2.6 | 5.2 | 0.00 | 0.00 | 0.00 | 67 | 1012.2 |
| 20260506083103 | 51 | 336 | 1.7 | 7.8 | 0.00 | 0.00 | 0.00 | 67 | 1012.2 |
| 20260506082605 | 51 | 144 | 0.9 | 8.7 | 0.00 | 0.00 | 0.00 | 65 | 1012.2 |
| 20260506082104 | 51 | 317 | 4.3 | 9.6 | 0.00 | 0.00 | 0.00 | 67 | 1012.2 |
| 20260506081603 | 51 | 21 | 4.3 | 7.0 | 0.00 | 0.00 | 0.00 | 69 | 1012.2 |
| 20260506081103 | 51 | 308 | 5.2 | 8.7 | 0.00 | 0.00 | 0.00 | 69 | 1012.5 |
| 20260506080603 | 51 | 325 | 4.3 | 9.6 | 0.00 | 0.00 | 0.00 | 69 | 1012.5 |